{"data":{"norad_id":58145,"epoch":"2026-09-21T22:32:19.798656Z","epoch_age_seconds":112035,"freshness":"FRESH","line1":"1 58145U 23163E   26264.93911804  .00002887  00000+0  14573-3 0  9990","line2":"2 58145  34.9899 125.7897 0002065 300.1742  59.8766 15.16693808162025","mean_motion":15.16693808,"eccentricity":0.0002065,"inclination_deg":34.9899,"raan_deg":125.7897,"arg_perigee_deg":300.1742,"mean_anomaly_deg":59.8766,"bstar":0.00014573,"rev_number":16202,"period_min":94.943355897184,"perigee_km":514.41748361862,"apogee_km":517.26469656983,"semimajor_km":6893.9780900942,"source":"CELESTRAK","updated_at":"2026-09-22T09:00:26.500418Z"}}